RH
74 76 83 89 68 54 52 58 43 46 50 47 42 47 71 76 60 73 84 79 77 87 91 90 88 96 96 95 96 96 97 95 97 95 92 94 97 95 100 94 95 91 91 89 75 74 78 88 86
65 75 91 86 59 57 54 50 53 48 47 43 45 53 68 82 78 90 93 87 85 90 85 85 84 89 94 96 97 97 97 97 97 96 93 95 92 93 100 97 88 89 86 81 79 76 79 88 92
62 71 88 78 53 53 60 49 50 46 41 39 45 48 64 86 82 84 83 78 83 84 80 83 81 93 96 95 96 97 96 97 96 96 96 94 96 94 98 98 80 79 82 83 88 88 89 92 89
73 68 64 53 42 40 53 45 41 44 39 38 44 58 62 65 73 74 80 64 81 81 81 88 93 96 96 95 96 96 97 96 95 96 96 96 93 91 92 92 83 89 92 95 90 93 93 92 80
53 60 59 47 41 38 45 39 42 49 47 45 43 61 77 67 67 76 84 73 85 81 91 91 91 94 94 96 96 96 96 96 96 96 97 96 95 95 96 95 94 96 96 95 93 92 91 92 89
49 57 54 52 40 39 43 38 41 45 44 48 53 60 68 77 71 87 83 79 79 88 91 91 88 92 95 95 95 96 96 95 96 96 94 95 95 95 91 94 96 94 92 94 93 92 92 91 88
48 53 50 43 42 42 42 37 45 46 45 46 46 72 75 70 76 81 71 71 80 95 91 92 91 93 95 96 96 96 95 96 95 96 95 96 96 95 95 95 94 96 93 89 86 82 68 80 72
55 51 47 46 42 41 40 38 39 42 46 38 46 75 83 64 72 78 73 88 93 91 83 84 87 90 90 91 96 95 96 95 96 96 96 92 94 94 95 88 93 89 84 60 69 55 58 65 62
39 57 49 42 40 38 34 41 38 35 42 41 38 52 55 62 68 76 88 95 93 91 87 81 85 82 87 92 92 93 96 96 96 94 92 90 87 92 89 82 92 94 93 71 68 61 51 50 57
46 51 45 36 32 33 35 39 42 43 42 44 46 50 56 60 71 80 86 92 92 89 87 81 81 81 84 91 93 92 92 93 93 91 89 91 86 85 87 75 94 95 85 70 71 63 65 58 57
38 43 38 34 38 30 33 38 37 44 49 42 59 60 56 63 70 73 76 82 75 66 74 72 73 72 79 82 86 84 88 85 72 77 73 74 81 83 80 77 93 93 91 75 64 60 62 55 53
37 35 32 34 35 33 35 34 41 40 43 36 47 51 57 63 62 66 71 72 72 71 71 66 74 63 63 67 70 68 76 75 76 68 70 74 76 75 74 75 72 71 70 73 69 60 48 46 42
43 36 33 32 34 32 32 36 41 42 36 36 42 46 53 53 54 58 62 67 66 69 70 69 72 64 69 65 65 70 73 74 71 72 74 75 75 74 75 69 68 67 59 65 60 62 66 66 63
38 36 36 37 40 41 35 39 38 40 36 36 38 46 48 48 48 48 51 59 63 61 65 61 67 64 66 68 69 68 71 71 70 74 74 76 73 70 72 71 70 70 68 65 68 65 66 65 68
38 40 40 42 45 40 37 46 46 38 35 37 37 39 41 41 42 45 48 56 57 57 63 59 62 65 66 70 65 70 69 70 67 67 72 71 71 70 70 67 64 66 66 67 68 67 64 62 63
40 46 52 41 45 43 40 53 46 38 37 39 37 36 36 41 39 41 44 51 54 55 60 60 62 66 69 69 68 68 70 68 69 68 71 68 69 69 69 69 67 65 66 67 69 68 67 66 70
45 50 48 48 44 41 42 56 48 44 39 39 36 37 36 42 41 39 42 46 54 53 56 60 62 64 63 68 68 64 64 66 69 68 68 66 68 67 69 68 71 72 72 71 70 72 72 73 69
42 50 49 50 42 40 43 50 50 48 49 38 42 38 41 41 42 38 41 42 53 55 57 59 63 62 62 68 70 66 65 68 68 67 69 70 69 69 70 68 68 66 67 68 69 69 69 67 69
42 40 32 40 38 46 44 40 45 50 50 54 56 53 49 45 40 38 43 43 59 61 61 58 63 64 62 68 70 64 61 66 67 68 69 71 70 71 70 69 68 69 66 66 69 70 71 70 70
41 46 46 39 36 43 52 51 42 50 50 48 55 58 55 52 46 47 42 48 57 56 55 54 56 62 62 63 55 58 58 61 64 66 67 70 70 72 69 67 66 72 69 72 71 74 74 76 74
41 43 45 35 39 42 58 57 55 46 51 50 47 50 50 49 59 61 52 54 56 59 53 54 58 58 62 61 57 63 66 61 63 57 68 72 72 71 72 71 76 75 73 75 74 74 75 75 74
32 33 33 37 40 49 40 57 46 51 52 53 46 50 48 46 52 64 67 60 55 52 48 51 56 55 59 60 61 66 63 68 63 56 66 62 59 68 73 75 79 78 79 80 78 78 76 82 73
28 27 30 33 38 40 46 50 50 52 48 44 45 42 46 43 52 58 65 58 54 54 47 57 58 57 60 64 66 62 58 58 61 62 69 57 66 74 77 83 82 82 84 88 87 85 82 80 79
25 30 36 45 42 39 39 43 41 50 39 32 37 40 38 43 45 48 52 55 54 55 58 59 58 64 63 65 64 62 61 60 64 70 68 71 72 83 84 79 80 82 85 84 79 76 76 76 85
26 30 38 33 47 37 48 42 39 28 35 33 38 40 37 42 44 47 56 53 54 58 60 63 66 65 62 65 63 62 64 63 65 65 70 71 76 86 87 79 76 78 78 78 74 67 68 77 79
29 30 35 30 43 38 42 43 30 29 31 32 33 33 36 47 45 48 49 54 59 64 63 59 60 65 64 63 68 67 65 67 68 70 71 75 78 87 84 81 77 70 66 70 75 74 69 68 68
25 23 24 49 51 45 44 39 30 31 30 32 30 35 41 36 46 49 46 55 60 68 68 62 63 64 62 58 66 68 68 68 71 73 75 78 83 89 84 76 63 70 67 71 76 71 66 65 71
17 19 23 36 44 44 46 44 40 29 31 31 33 33 46 50 49 48 51 56 60 67 68 67 60 60 62 63 68 70 72 71 73 75 78 79 83 82 72 65 69 70 69 67 64 65 68 66 75
15 18 27 35 42 47 40 46 41 33 32 29 32 33 40 52 53 53 55 57 62 70 68 63 64 64 67 68 72 71 71 74 79 80 81 78 75 69 66 69 73 74 75 72 74 74 75 75 78
10 13 21 20 20 46 40 34 23 31 28 32 29 33 39 51 54 59 60 62 70 72 71 69 66 67 67 71 70 71 74 78 79 81 77 72 67 64 64 71 73 74 74 71 75 75 72 74 78
Wind_Speed
9 12 11 5 3 4 2 3 1 4 3 4 2 7 9 9 1 4 11 14 22 19 16 16 14 13 14 15 14 15 16 18 16 16 16 16 21 21 19 22 20 19 16 9 10 9 7 11 13
13 3 3 1 5 4 3 2 4 4 9 10 10 6 10 5 5 12 12 23 22 20 18 17 16 14 13 14 14 15 16 17 15 15 15 17 19 21 22 25 24 17 15 11 10 12 14 14 14
3 1 2 3 3 3 3 2 11 11 7 2 5 5 3 3 8 14 16 27 23 21 19 18 16 14 14 14 14 16 16 17 17 15 14 15 17 19 23 24 24 20 17 14 14 14 14 15 17
5 3 3 4 3 6 6 8 10 9 10 9 11 7 5 1 15 12 32 27 24 22 20 17 16 15 14 14 15 16 17 18 17 16 15 14 17 19 20 20 21 16 13 13 14 13 14 14 15
3 2 5 2 3 3 9 10 12 7 4 13 8 6 8 7 10 30 27 27 26 23 20 18 16 15 14 15 15 15 15 16 16 15 14 14 15 16 16 18 17 16 15 13 13 12 12 12 12
4 2 4 2 3 4 5 12 6 14 10 14 12 7 3 20 32 24 24 27 24 23 20 17 17 15 15 14 15 14 15 15 14 14 14 13 13 13 15 16 15 15 14 12 11 11 10 9 9
4 3 0 2 4 4 4 5 10 12 12 7 7 5 4 12 21 26 26 25 23 21 20 19 18 15 13 14 13 15 14 14 14 12 13 12 11 11 11 13 14 12 11 10 10 11 12 10 8
4 4 3 3 2 3 9 4 12 15 4 11 9 4 7 11 20 23 23 22 20 20 20 19 19 17 15 14 13 14 14 14 12 11 11 11 10 10 9 10 9 8 7 7 8 9 9 8 5
3 4 1 2 3 4 9 8 10 6 12 6 1 7 14 24 22 20 18 18 18 18 19 18 17 17 17 15 13 13 13 12 11 11 10 12 11 9 9 10 8 7 6 6 5 5 6 5 5
5 3 4 2 3 4 5 11 8 7 11 6 11 15 26 25 23 21 19 18 20 18 19 18 17 17 17 17 15 14 13 14 13 12 12 12 12 11 10 9 7 6 5 5 5 4 4 5 6
3 4 3 6 4 6 7 7 6 18 4 16 20 21 21 22 19 18 17 21 28 24 20 20 18 18 18 18 16 15 14 13 13 13 11 11 11 10 10 9 9 10 8 9 7 7 8 8 7
4 8 3 2 7 4 3 5 10 8 7 13 21 22 20 16 15 18 18 21 22 25 23 22 19 18 17 16 16 15 14 14 13 12 12 11 10 10 10 9 8 10 10 10 10 9 9 11 11
3 4 3 8 13 11 12 7 6 6 13 11 17 18 20 18 19 21 23 22 25 24 24 24 21 20 17 18 16 16 15 15 14 13 13 13 13 14 12 12 11 11 11 11 10 12 12 13 14
3 7 5 5 7 6 11 5 5 4 12 10 17 18 17 15 18 16 20 22 26 28 26 24 24 22 20 19 18 17 16 15 14 15 15 15 13 14 13 14 17 17 15 13 11 11 15 18 16
2 5 6 6 3 4 10 6 6 11 13 12 12 14 14 12 17 21 27 28 32 31 27 26 24 22 20 18 16 15 16 14 15 15 13 15 14 13 13 11 11 14 15 14 13 12 10 11 13
5 5 5 5 7 4 2 2 7 8 12 15 14 12 14 11 21 26 27 31 32 31 30 27 24 23 19 18 14 13 18 14 16 16 14 15 14 14 15 15 14 11 14 13 14 13 13 16 16
8 2 3 7 1 4 4 4 5 6 8 12 15 13 12 8 12 28 29 33 34 35 33 30 26 22 18 16 13 12 12 18 15 16 16 16 15 14 12 12 10 10 12 12 14 15 16 13 11
4 3 2 4 3 4 3 5 7 7 7 12 8 9 7 8 13 26 30 34 35 37 34 30 27 23 19 15 12 10 12 15 16 16 15 12 11 9 10 9 8 8 10 9 11 14 12 10 11
8 4 4 4 4 2 3 4 7 4 3 6 9 7 6 8 5 17 26 30 27 33 34 32 30 27 23 20 15 13 14 16 16 15 14 12 12 13 10 9 8 5 9 7 8 7 7 8 8
9 3 3 5 4 2 3 10 1 4 3 6 7 8 8 6 4 8 19 23 30 38 38 33 32 30 26 22 18 14 16 15 14 11 10 13 11 11 9 8 9 7 9 11 8 8 7 5 4
4 6 5 5 3 3 4 7 4 2 5 5 7 8 12 14 9 6 13 21 27 30 38 36 34 31 29 26 21 12 11 12 13 13 13 11 10 9 9 7 6 6 5 5 6 8 9 7 3
1 7 6 6 3 3 3 4 5 5 7 7 8 9 14 15 10 9 11 19 26 35 34 33 35 33 30 27 23 18 14 15 19 16 13 10 7 5 6 5 2 0 1 2 3 4 7 9 5
8 0 1 2 5 3 1 2 6 5 6 10 12 10 13 15 16 15 16 26 27 29 34 30 33 34 31 28 23 21 17 14 9 18 13 7 8 5 4 3 2 3 1 1 2 1 2 3 4
6 6 9 6 4 3 2 3 5 4 6 2 2 7 11 17 18 16 20 24 24 24 26 31 31 30 29 26 22 19 19 16 12 12 11 9 8 6 4 2 1 1 1 0 0 1 2 3 5
6 6 3 3 4 4 5 3 9 6 8 7 10 9 8 13 15 16 13 20 25 26 27 29 32 36 31 26 21 18 16 15 14 14 12 11 9 9 7 5 3 2 2 2 2 2 3 4 3
7 8 5 4 3 4 3 4 5 5 7 6 5 6 9 13 17 20 18 21 24 26 29 30 31 32 25 21 20 15 15 14 12 11 10 10 10 10 8 6 3 3 1 1 4 5 3 4 4
4 3 5 7 4 2 3 7 10 3 5 2 3 5 7 11 16 18 18 22 23 24 29 34 33 32 25 23 21 17 13 12 11 10 9 10 10 11 8 5 2 2 0 3 4 3 2 1 2
11 9 2 3 3 4 4 5 6 4 6 5 7 6 6 6 8 10 13 21 24 27 31 32 35 35 28 24 23 19 15 13 12 11 10 9 11 10 9 7 5 3 4 3 2 2 2 3 4
2 0 7 6 4 6 2 6 8 10 9 9 8 8 8 9 8 9 10 20 24 26 32 35 36 35 29 28 24 21 19 16 16 14 13 14 14 12 10 9 5 4 3 2 3 5 4 4 5
5 3 6 5 4 0 3 6 4 8 11 9 11 9 6 8 10 9 9 19 22 26 29 33 35 34 32 31 30 27 23 22 23 22 20 19 16 12 10 11 10 9 5 5 5 5 5 5 6
Wind_Direction
152 131 139 132 31 69 59 358 27 105 76 340 81 122 112 33 94 163 151 155 150 146 145 133 124 116 106 101 103 113 128 139 126 110 101 93 101 119 135 142 133 132 139 149 142 146 142 119 112
128 113 160 75 76 57 354 28 73 69 123 95 78 88 51 58 50 117 123 159 152 146 139 131 129 121 117 108 104 118 130 139 133 125 111 105 95 97 110 126 129 124 124 124 130 127 118 110 120
209 118 47 84 118 150 129 136 117 132 155 111 104 78 79 81 100 140 156 156 151 147 142 138 137 131 122 110 109 119 127 135 134 135 131 115 111 103 106 119 120 129 127 125 121 120 121 117 119
2 359 355 65 37 354 124 159 125 108 79 78 119 64 54 262 148 163 154 155 152 150 145 146 141 134 127 122 116 118 121 128 134 134 133 133 124 129 125 128 133 128 128 124 127 126 124 125 120
346 47 54 66 360 34 119 138 126 109 76 97 105 101 110 139 144 146 156 159 155 153 150 147 145 138 136 131 123 122 128 130 132 131 127 128 137 139 139 136 137 135 133 133 133 135 133 129 128
25 88 48 64 99 53 104 133 124 105 105 101 99 99 58 135 137 151 162 161 157 152 149 150 150 146 141 135 133 131 132 136 137 135 133 130 131 133 131 134 136 137 134 134 139 142 140 135 136
108 71 255 17 100 87 111 118 114 116 124 98 117 77 105 137 150 159 163 162 159 157 154 154 151 150 147 145 139 140 139 142 146 142 137 135 137 136 134 135 136 134 134 140 145 145 145 149 149
99 91 25 329 180 119 148 115 129 131 96 109 144 151 162 171 155 155 161 161 164 164 163 160 157 157 155 150 152 147 150 147 149 147 143 141 144 141 143 135 135 136 132 137 142 152 160 163 157
102 62 61 263 189 129 151 129 164 96 130 149 186 124 141 149 147 142 149 162 169 174 169 168 167 167 159 159 158 158 155 155 155 154 152 152 156 164 164 158 151 159 161 157 162 164 171 184 195
70 77 11 328 337 142 111 140 127 123 134 106 94 114 138 152 155 154 162 168 176 181 176 176 176 175 170 167 168 167 166 169 170 174 172 172 175 178 182 183 185 189 183 177 205 207 224 220 234
45 27 6 7 35 82 102 119 111 137 137 150 139 145 151 160 165 169 176 176 179 177 176 182 179 177 175 177 178 177 174 180 179 182 187 186 188 195 201 201 203 207 211 218 225 238 244 244 239
74 30 42 277 77 69 78 100 134 158 163 143 148 150 156 170 177 179 180 179 186 182 181 182 182 181 174 174 174 179 182 183 187 188 193 198 206 211 212 224 230 228 225 236 236 243 251 253 248
28 44 37 61 70 72 79 97 123 141 145 121 141 153 170 178 182 187 187 181 188 189 188 187 187 187 182 185 184 185 189 191 196 205 210 214 226 229 232 234 231 240 237 240 245 249 251 259 261
200 104 111 44 75 59 102 81 98 152 145 137 154 173 178 178 180 182 185 184 190 194 191 189 193 192 192 196 206 204 204 208 209 214 220 227 235 237 237 241 244 239 240 242 248 259 259 262 256
77 54 12 7 317 135 118 58 134 158 162 166 179 176 181 186 185 182 182 183 188 196 193 191 194 198 199 203 200 203 204 209 210 216 223 221 221 220 227 237 243 234 243 242 244 253 265 270 260
82 55 27 310 325 349 358 168 148 143 171 183 192 198 192 186 186 196 184 186 190 194 195 192 192 198 204 204 204 210 207 220 217 221 217 215 223 227 229 230 238 243 233 241 249 248 260 261 264
18 88 22 316 313 268 215 159 212 170 174 203 199 201 207 209 193 195 191 190 189 193 191 191 195 199 198 204 204 208 216 213 214 213 224 222 230 225 226 231 236 236 241 244 244 250 251 254 256
136 138 148 222 291 329 64 166 171 196 177 204 219 218 204 205 210 200 189 190 188 191 191 188 194 197 199 202 196 199 197 208 212 212 220 220 217 209 222 220 240 239 231 238 249 245 250 264 277
113 142 189 243 242 356 276 226 179 143 151 195 218 222 207 215 224 199 188 186 181 188 192 192 194 198 198 198 197 202 207 210 215 220 223 222 234 233 232 236 241 256 230 255 272 266 284 281 276
117 124 272 291 260 166 345 282 73 170 200 222 235 213 210 196 184 178 190 180 185 191 195 195 197 196 197 200 199 203 214 222 227 241 226 230 239 243 255 242 256 258 259 265 257 261 263 258 268
180 161 197 223 80 31 75 298 244 252 170 205 221 225 202 205 185 164 182 186 187 193 196 199 200 197 200 204 200 209 216 226 229 231 229 233 243 241 242 251 242 258 251 259 260 260 260 256 243
310 204 188 169 94 228 110 283 289 226 236 213 232 219 214 201 189 168 178 187 192 199 198 203 206 202 203 201 204 207 208 219 227 222 229 230 227 249 255 236 200 45 277 287 277 299 262 226 187
232 28 198 199 152 56 200 109 283 46 301 265 243 218 215 200 185 185 183 195 196 194 198 203 199 200 200 202 205 208 213 219 234 225 219 239 227 199 188 203 231 272 289 37 56 99 105 155 158
111 63 26 36 61 311 13 106 284 198 209 241 242 222 210 199 194 188 190 194 201 201 202 202 196 198 202 209 209 209 213 219 223 207 207 211 204 180 170 166 179 160 146 128 228 208 202 182 157
87 70 316 4 12 237 336 34 239 262 220 202 189 206 213 192 191 188 183 191 203 198 197 198 199 207 209 215 217 216 216 209 209 203 199 204 193 179 177 171 179 225 256 257 255 195 130 142 167
179 143 171 172 198 271 4 245 257 225 280 252 252 209 208 179 188 190 189 185 187 191 193 199 206 204 205 214 210 206 213 212 206 207 211 212 209 192 184 187 211 267 262 192 132 134 120 106 111
224 178 211 100 12 47 263 293 304 296 301 311 267 307 160 209 187 189 184 183 179 183 187 197 203 207 205 203 205 207 207 210 210 206 210 208 198 191 186 194 222 147 72 136 147 136 102 114 109
163 156 101 10 134 266 285 284 238 290 248 226 235 239 124 148 157 182 175 178 179 184 188 194 204 205 203 201 203 205 212 219 221 213 211 203 189 188 191 190 177 153 113 111 143 115 99 113 122
112 113 58 116 123 166 215 265 217 217 218 215 230 205 167 169 172 175 176 178 176 177 185 196 202 204 201 197 196 202 210 208 203 200 197 193 191 191 190 183 181 165 128 103 124 125 107 134 127
142 145 138 123 222 151 149 273 278 213 216 211 225 187 198 173 172 162 170 167 170 180 187 195 203 204 205 199 199 200 201 198 196 197 196 190 189 189 190 185 185 181 177 160 159 150 129 139 158